OK,69,58,970,69,2014-10-01T01:40:00,0,28072740,197408
OK,69,58,970,69,2014-10-01T01:45:00,0,28073187,197408
OK,69,58,970,69,2014-10-01T01:50:00,0,28073635,197408
OK,69,58,970,69,2014-10-01T01:55:00,0,28073953,197408
OK,69,58,970,69,2014-10-01T02:00:00,0,28074402,197408
OK,69,58,970,69,2014-10-01T02:05:00,0,28074842,197408
OK,69,58,970,69,2014-10-01T02:10:00,0,28075291,197408
OK,69,58,970,69,2014-10-01T02:15:00,0,28075740,197408
OK,69,58,970,69,2014-10-01T02:20:00,0,28076123,197408
OK,64,62,970,64,2014-10-01T02:25:00,0,28076572,197408
OK,64,62,970,64,2014-10-01T02:30:00,0,28077021,197408
OK,64,62,970,64,2014-10-01T02:35:00,0,28077470,197408
OK,64,62,970,64,2014-10-01T02:40:00,0,28077873,197408
OK,64,62,970,64,2014-10-01T02:45:00,0,28078322,197408
OK,64,62,970,64,2014-10-01T02:50:00,0,28078767,197408
OK,64,62,970,64,2014-10-01T02:55:00,0,28079216,197408
OK,64,62,970,64,2014-10-01T03:00:00,0,28079658,197408
OK,78,51,970,78,2014-10-01T03:05:00,1,28080107,197408
OK,78,51,970,78,2014-10-01T03:10:00,0,28080441,197408
OK,88,45,970,88,2014-10-01T03:15:00,0,28080890,197408
OK,65,61,970,65,2014-10-01T03:20:00,2,28081339,197408
OK,65,61,970,65,2014-10-01T03:25:00,2,28081786,197408
OK,62,64,970,62,2014-10-01T03:30:00,0,28082235,197408
OK,64,62,970,64,2014-10-01T03:35:00,2,28082668,197408
OK,67,60,970,67,2014-10-01T03:40:00,1,28083100,197408
OK,69,58,970,69,2014-10-01T03:45:00,2,28083549,197408
OK,73,55,970,73,2014-10-01T03:50:00,2,28083998,197408
OK,71,56,970,71,2014-10-01T03:55:00,3,28084439,197408
OK,67,60,970,67,2014-10-01T04:00:00,6,28084864,197408
OK,69,58,970,69,2014-10-01T04:05:00,5,28085313,197408
OK,87,46,970,87,2014-10-01T04:10:00,7,28085758,197408
OK,68,59,970,68,2014-10-01T04:15:00,4,28086207,197408
OK,63,63,970,63,2014-10-01T04:20:00,4,28086649,197408
OK,81,49,970,81,2014-10-01T04:25:00,3,28087098,197408
OK,81,49,970,81,2014-10-01T04:30:00,9,28087543,197408
OK,81,49,970,81,2014-10-01T04:35:00,9,28087992,197408
OK,87,46,970,87,2014-10-01T04:40:00,11,28088416,197408
OK,82,49,970,82,2014-10-01T04:45:00,19,28088865,197408
OK,84,47,970,84,2014-10-01T04:50:00,14,28089295,197408
OK,88,45,970,88,2014-10-01T04:55:00,15,28089744,197408
OK,90,44,970,90,2014-10-01T05:00:00,22,28090193,197408
OK,87,46,970,87,2014-10-01T05:05:00,17,28090539,197408
OK,90,44,970,90,2014-10-01T05:10:00,16,28090986,197408
OK,89,45,970,89,2014-10-01T05:15:00,23,28091435,197408
OK,90,44,970,90,2014-10-01T05:20:00,20,28091852,197408
OK,95,42,970,95,2014-10-01T05:25:00,19,28092301,197408
OK,96,41,970,96,2014-10-01T05:30:00,22,28092745,197408
OK,113,35,970,113,2014-10-01T05:35:00,26,28093186,197408
OK,148,27,970,148,2014-10-01T05:40:00,25,28093617,197408
OK,182,22,970,182,2014-10-01T05:45:00,29,28094066,197408
OK,184,21,970,184,2014-10-01T05:50:00,25,28094477,197408
OK,169,23,970,169,2014-10-01T05:55:00,22,28094922,197408
OK,184,21,970,184,2014-10-01T06:00:00,25,28095369,197408
OK,189,21,970,189,2014-10-01T06:05:00,31,28095818,197408
OK,154,26,970,154,2014-10-01T06:10:00,27,28096231,197408
OK,145,27,970,145,2014-10-01T06:15:00,18,28096680,197408
OK,87,46,970,87,2014-10-01T06:20:00,18,28097114,197408
OK,82,49,970,82,2014-10-01T06:25:00,18,28097563,197408
OK,87,46,970,87,2014-10-01T06:30:00,21,28098012,197408
OK,87,46,970,87,2014-10-01T06:35:00,24,28098449,197408
OK,78,51,970,78,2014-10-01T06:40:00,15,28098893,197408
OK,84,47,970,84,2014-10-01T06:45:00,15,28099341,197408
OK,84,47,970,84,2014-10-01T06:50:00,13,28099684,197408
OK,68,59,970,68,2014-10-01T06:55:00,10,28100133,197408
OK,73,55,970,73,2014-10-01T07:00:00,9,28100440,197408
OK,78,51,970,78,2014-10-01T07:05:00,14,28100889,197408
OK,75,53,970,75,2014-10-01T07:10:00,12,28101260,197408
OK,78,51,970,78,2014-10-01T07:15:00,9,28101709,197408
OK,78,51,970,78,2014-10-01T07:20:00,7,28102145,197408
OK,74,54,970,74,2014-10-01T07:25:00,10,28102594,197408
OK,76,52,970,76,2014-10-01T07:30:00,11,28103022,197408
OK,78,51,970,78,2014-10-01T07:35:00,7,28103468,197408
OK,80,50,970,80,2014-10-01T07:40:00,7,28103913,197408
OK,74,54,970,74,2014-10-01T07:45:00,7,28104358,197408
OK,71,56,970,71,2014-10-01T07:50:00,7,28104799,197408
OK,74,54,970,74,2014-10-01T07:55:00,4,28105244,197408
OK,83,48,970,83,2014-10-01T08:00:00,4,28105684,197408
OK,66,60,970,66,2014-10-01T08:05:00,5,28106133,197408
OK,68,59,970,68,2014-10-01T08:10:00,4,28106570,197408
OK,77,52,970,77,2014-10-01T08:15:00,7,28106976,197408
OK,77,52,970,77,2014-10-01T08:20:00,13,28107408,197408
OK,79,50,970,79,2014-10-01T08:25:00,10,28107857,197408
OK,79,50,970,79,2014-10-01T08:30:00,5,28108296,197408
OK,75,53,970,75,2014-10-01T08:35:00,8,28108745,197408
OK,74,54,970,74,2014-10-01T08:40:00,7,28109173,197408
OK,72,55,970,72,2014-10-01T08:45:00,6,28109622,197408
OK,70,57,970,70,2014-10-01T08:50:00,9,28109965,197408
OK,75,53,970,75,2014-10-01T08:55:00,7,28110414,197408
OK,79,50,970,79,2014-10-01T09:00:00,7,28110837,197408
OK,79,50,970,79,2014-10-01T09:05:00,7,28111286,197408
OK,66,60,970,66,2014-10-01T09:10:00,4,28111715,197408
OK,77,52,970,77,2014-10-01T09:15:00,6,28112164,197408
OK,79,50,970,79,2014-10-01T09:20:00,4,28112505,197408
OK,78,51,970,78,2014-10-01T09:25:00,2,28112954,197408
OK,78,51,970,78,2014-10-01T09:30:00,2,28113378,197408
OK,78,51,970,78,2014-10-01T09:35:00,1,28113827,197408
OK,78,51,970,78,2014-10-01T09:40:00,1,28114259,197408
OK,71,56,970,71,2014-10-01T09:45:00,2,28114708,197408
OK,78,51,970,78,2014-10-01T09:50:00,6,28115062,197408
OK,88,45,970,88,2014-10-01T10:00:00,2,28115923,197408
OK,73,55,970,73,2014-10-01T10:05:00,7,28116372,197408
OK,72,55,970,72,2014-10-01T10:10:00,10,28116780,197408
OK,72,55,970,72,2014-10-01T10:15:00,5,28117229,197408
OK,71,56,970,71,2014-10-01T10:20:00,6,28117654,197408
OK,73,55,970,73,2014-10-01T10:25:00,12,28118103,197408
OK,73,55,970,73,2014-10-01T10:30:00,9,28118548,197408
OK,69,58,970,69,2014-10-01T10:35:00,3,28118995,197408
OK,74,54,970,74,2014-10-01T10:40:00,2,28119439,197408
OK,89,45,970,89,2014-10-01T10:45:00,6,28119887,197408
OK,89,45,970,89,2014-10-01T10:50:00,10,28120335,197408
OK,79,50,970,79,2014-10-01T10:55:00,8,28120784,197408
OK,83,48,970,83,2014-10-01T11:00:00,11,28121167,197408
OK,79,50,970,79,2014-10-01T11:05:00,0,28121616,197408
OK,72,55,970,72,2014-10-01T11:10:00,11,28122054,197408
OK,81,49,970,81,2014-10-01T11:15:00,8,28122503,197408
OK,91,44,970,91,2014-10-01T11:20:00,8,28122944,197408
OK,86,46,970,86,2014-10-01T11:25:00,9,28123393,197408
OK,82,49,970,82,2014-10-01T11:30:00,10,28123825,197408
OK,73,55,970,73,2014-10-01T11:35:00,10,28124274,197408
OK,69,58,970,69,2014-10-01T11:40:00,10,28124676,197408
OK,71,56,970,71,2014-10-01T11:45:00,6,28125125,197408
OK,80,50,970,80,2014-10-01T11:50:00,9,28125554,197408
OK,98,41,970,98,2014-10-01T11:55:00,6,28126003,197408
OK,75,53,970,75,2014-10-01T12:00:00,5,28126355,197408
OK,73,55,970,73,2014-10-01T12:05:00,6,28126804,197408
OK,81,49,970,81,2014-10-01T12:10:00,5,28127253,197408
OK,89,45,970,89,2014-10-01T12:15:00,3,28127702,197408
OK,83,48,970,83,2014-10-01T12:20:00,2,28128130,197408
OK,74,54,970,74,2014-10-01T12:25:00,5,28128579,197408
OK,73,55,970,73,2014-10-01T12:30:00,7,28129014,197408
OK,75,53,970,75,2014-10-01T12:35:00,6,28129463,197408
OK,79,50,970,79,2014-10-01T12:40:00,3,28129897,197408
OK,99,40,970,99,2014-10-01T12:45:00,0,28130346,197408
OK,76,52,970,76,2014-10-01T12:50:00,6,28130774,197408
OK,76,52,970,76,2014-10-01T12:55:00,6,28131223,197408
OK,76,52,970,76,2014-10-01T13:00:00,7,28131660,197408
OK,79,50,970,79,2014-10-01T13:05:00,12,28132109,197408
OK,75,53,970,75,2014-10-01T13:10:00,14,28132547,197408
OK,78,51,970,78,2014-10-01T13:15:00,15,28132994,197408
OK,84,47,970,84,2014-10-01T13:20:00,13,28133432,197408
OK,80,50,970,80,2014-10-01T13:25:00,8,28133881,197408
OK,84,47,970,84,2014-10-01T13:30:00,9,28134320,197408
OK,75,53,970,75,2014-10-01T13:35:00,12,28134769,197408
OK,79,50,970,79,2014-10-01T13:40:00,10,28135188,197408
OK,76,52,970,76,2014-10-01T13:45:00,7,28135637,197408
OK,76,52,970,76,2014-10-01T13:50:00,8,28136074,197408
OK,75,53,970,75,2014-10-01T13:55:00,12,28136523,197408
OK,75,53,970,75,2014-10-01T14:00:00,12,28136963,197408
OK,74,54,970,74,2014-10-01T14:05:00,8,28137412,197408
OK,74,54,970,74,2014-10-01T14:10:00,10,28137846,197408
OK,85,47,970,85,2014-10-01T14:15:00,13,28138295,197408
OK,90,44,970,90,2014-10-01T14:20:00,13,28138723,197408
OK,82,49,970,82,2014-10-01T14:25:00,9,28139172,197408
OK,84,47,970,84,2014-10-01T14:30:00,8,28139583,197408
OK,78,51,970,78,2014-10-01T14:35:00,20,28140032,197408
OK,74,54,970,74,2014-10-01T14:40:00,23,28140474,197408
OK,77,52,970,77,2014-10-01T14:45:00,14,28140923,197408
OK,79,50,970,79,2014-10-01T14:50:00,12,28141349,197408
OK,77,52,970,77,2014-10-01T14:55:00,11,28141798,197408
OK,76,52,970,76,2014-10-01T15:00:00,8,28142226,197408
OK,74,54,970,74,2014-10-01T15:05:00,10,28142675,197408
OK,77,52,970,77,2014-10-01T15:10:00,11,28143102,197408
OK,75,53,970,75,2014-10-01T15:15:00,10,28143551,197408
OK,67,60,970,67,2014-10-01T15:20:00,8,28143999,197408
OK,71,56,970,71,2014-10-01T15:25:00,9,28144448,197408
OK,72,55,970,72,2014-10-01T15:30:00,7,28144869,197408
OK,66,60,970,66,2014-10-01T15:35:00,5,28145283,197408
OK,68,59,970,68,2014-10-01T15:40:00,5,28145732,197408
OK,71,56,970,71,2014-10-01T15:45:00,9,28146181,197408
OK,71,56,970,71,2014-10-01T15:50:00,14,28146630,197408
OK,82,49,970,82,2014-10-01T15:55:00,7,28147038,197408
OK,79,50,970,79,2014-10-01T16:00:00,4,28147482,197408
OK,70,57,970,70,2014-10-01T16:05:00,5,28147931,197408
OK,73,55,970,73,2014-10-01T16:10:00,7,28148332,197408
OK,73,55,970,73,2014-10-01T16:15:00,3,28148781,197408
OK,68,59,970,68,2014-10-01T16:20:00,1,28149220,197408
OK,64,62,970,64,2014-10-01T16:25:00,3,28149669,197408
OK,64,62,970,64,2014-10-01T16:30:00,2,28150095,197408
OK,64,62,970,64,2014-10-01T16:35:00,0,28150544,197408
OK,72,55,970,72,2014-10-01T16:40:00,2,28150962,197408
OK,72,55,970,72,2014-10-01T16:45:00,6,28151411,197408
OK,74,54,970,74,2014-10-01T16:50:00,5,28151860,197408
OK,69,58,970,69,2014-10-01T17:00:00,1,28152309,197408
OK,70,57,970,70,2014-10-01T17:05:00,2,28152755,197408
OK,69,58,970,69,2014-10-01T17:10:00,4,28153202,197408
OK,62,64,970,62,2014-10-01T17:15:00,2,28153651,197408
OK,71,56,970,71,2014-10-01T17:20:00,3,28154061,197408
OK,71,56,970,71,2014-10-01T17:25:00,4,28154510,197408
OK,71,56,970,71,2014-10-01T17:30:00,2,28154952,197408
OK,61,65,970,61,2014-10-01T17:35:00,1,28155400,197408
OK,73,55,970,73,2014-10-01T17:40:00,3,28155818,197408
OK,71,56,970,71,2014-10-01T17:45:00,2,28156267,197408
OK,75,53,970,75,2014-10-01T17:55:00,2,28157154,197408
OK,68,59,970,68,2014-10-01T18:00:00,0,28157584,197408
OK,68,59,970,68,2014-10-01T18:05:00,0,28158032,197408
OK,74,54,970,74,2014-10-01T18:10:00,1,28158476,197408
OK,76,52,970,76,2014-10-01T18:15:00,1,28158922,197408
OK,72,55,970,72,2014-10-01T18:20:00,2,28159368,197408
OK,63,63,970,63,2014-10-01T18:25:00,2,28159703,197408
OK,57,70,970,57,2014-10-01T18:30:00,1,28160152,197408
OK,91,44,970,91,2014-10-01T18:35:00,2,28160601,197408
OK,91,44,970,91,2014-10-01T18:40:00,0,28161039,197408
OK,81,49,970,81,2014-10-01T18:45:00,1,28161488,197408
OK,75,53,970,75,2014-10-01T18:50:00,2,28161905,197408
OK,63,63,970,63,2014-10-01T18:55:00,1,28162354,197408
OK,68,59,970,68,2014-10-01T19:00:00,3,28162748,197408
OK,68,59,970,68,2014-10-01T19:05:00,3,28163187,197408
OK,63,63,970,63,2014-10-01T19:10:00,2,28163635,197408
OK,83,48,970,83,2014-10-01T19:15:00,5,28164084,197408
OK,82,49,970,82,2014-10-01T19:20:00,6,28164515,197408
OK,70,57,970,70,2014-10-01T19:25:00,4,28164964,197408
OK,85,47,970,85,2014-10-01T19:30:00,2,28165389,197408
OK,104,38,970,104,2014-10-01T19:35:00,1,28165837,197408
OK,59,68,970,59,2014-10-01T19:40:00,1,28166278,197408
OK,59,68,970,59,2014-10-01T19:45:00,0,28166640,197408
OK,68,59,970,68,2014-10-01T19:50:00,2,28167089,197408
OK,72,55,970,72,2014-10-01T19:55:00,3,28167518,197408
OK,75,53,970,75,2014-10-01T20:00:00,1,28167951,197408
OK,73,55,970,73,2014-10-01T20:05:00,2,28168400,197408
OK,71,56,970,71,2014-10-01T20:10:00,1,28168845,197408
OK,74,54,970,74,2014-10-01T20:15:00,2,28169294,197408
OK,74,54,970,74,2014-10-01T20:20:00,2,28169742,197408
OK,75,53,970,75,2014-10-01T20:25:00,0,28170168,197408
OK,75,53,970,75,2014-10-01T20:30:00,0,28170613,197408
OK,75,53,970,75,2014-10-01T20:35:00,0,28171061,197408
OK,75,53,970,75,2014-10-01T20:40:00,2,28171498,197408
OK,75,53,970,75,2014-10-01T20:45:00,2,28171944,197408
OK,75,53,970,75,2014-10-01T20:50:00,0,28172392,197408
OK,75,53,970,75,2014-10-01T20:55:00,0,28172838,197408
OK,75,53,970,75,2014-10-01T21:00:00,0,28173284,197408
OK,62,64,970,62,2014-10-01T21:05:00,1,28173733,197408
OK,62,64,970,62,2014-10-01T21:10:00,1,28174174,197408
OK,62,64,970,62,2014-10-01T21:15:00,0,28174623,197408
OK,74,54,970,74,2014-10-01T21:20:00,1,28175049,197408
OK,74,54,970,74,2014-10-01T21:25:00,1,28175445,197408
OK,74,54,970,74,2014-10-01T21:30:00,0,28175894,197408
OK,83,48,970,83,2014-10-01T21:35:00,0,28176343,197408
OK,83,48,970,83,2014-10-01T21:40:00,0,28176792,197408
OK,83,48,970,83,2014-10-01T21:45:00,0,28177148,197408
OK,83,48,970,83,2014-10-01T21:50:00,0,28177588,197408
OK,83,48,970,83,2014-10-01T21:55:00,0,28178034,197408
OK,83,48,970,83,2014-10-01T22:00:00,0,28178483,197408
OK,83,48,970,83,2014-10-01T22:05:00,0,28178930,197408
OK,83,48,970,83,2014-10-01T22:10:00,0,28179364,197408
OK,83,48,970,83,2014-10-01T22:15:00,0,28179807,197408
OK,83,48,970,83,2014-10-01T22:20:00,0,28180254,197408
OK,97,41,970,97,2014-10-01T22:25:00,1,28180652,197408
OK,97,41,970,97,2014-10-01T22:30:00,0,28181101,197408
OK,97,41,970,97,2014-10-01T22:35:00,0,28181525,197408
OK,97,41,970,97,2014-10-01T22:40:00,0,28181973,197408
OK,67,60,970,67,2014-10-01T22:45:00,1,28182420,197408
OK,67,60,970,67,2014-10-01T22:50:00,1,28182869,197408
OK,67,60,970,67,2014-10-01T22:55:00,0,28183286,197408
OK,67,60,970,67,2014-10-01T23:00:00,0,28183719,197408
OK,81,49,970,81,2014-10-01T23:05:00,1,28184164,197408
OK,116,34,970,116,2014-10-01T23:10:00,2,28184613,197408
OK,79,50,970,79,2014-10-01T23:15:00,1,28185048,197408
OK,79,50,970,79,2014-10-01T23:20:00,0,28185496,197408
OK,79,50,970,79,2014-10-01T23:25:00,0,28185927,197408
OK,79,50,970,79,2014-10-01T23:30:00,0,28186319,197408
OK,79,50,970,79,2014-10-01T23:40:00,0,28187166,197408
OK,79,50,970,79,2014-10-01T23:55:00,0,28188498,197408
OK,79,50,970,79,2014-10-02T00:05:00,0,28189383,197408
OK,79,50,970,79,2014-10-02T00:10:00,0,28189805,197408
OK,79,50,970,79,2014-10-02T00:15:00,0,28190254,197408
OK,79,50,970,79,2014-10-02T00:20:00,0,28190607,197408
OK,79,50,970,79,2014-10-02T00:30:00,0,28191505,197408
OK,79,50,970,79,2014-10-02T00:35:00,0,28191811,197408
OK,79,50,970,79,2014-10-02T00:40:00,0,28192260,197408
OK,79,50,970,79,2014-10-02T00:45:00,0,28192693,197408
OK,79,50,970,79,2014-10-02T00:50:00,0,28193137,197408
OK,79,50,970,79,2014-10-02T00:55:00,0,28193504,197408
OK,79,50,970,79,2014-10-02T01:05:00,0,28194402,197408
OK,79,50,970,79,2014-10-02T01:10:00,0,28194851,197408
OK,79,50,970,79,2014-10-02T01:15:00,0,28195088,197408
OK,79,50,970,79,2014-10-02T01:25:00,0,28195985,197408
OK,79,50,970,79,2014-10-02T01:30:00,0,28196272,197408
OK,79,50,970,79,2014-10-02T01:35:00,0,28196718,197408
OK,79,50,970,79,2014-10-02T01:40:00,0,28197141,197408
OK,79,50,970,79,2014-10-02T01:45:00,0,28197590,197408
OK,79,50,970,79,2014-10-02T01:50:00,0,28198038,197408
OK,79,50,970,79,2014-10-02T01:55:00,0,28198486,197408
OK,79,50,970,79,2014-10-02T02:00:00,0,28198935,197408
OK,79,50,970,79,2014-10-02T02:05:00,0,28199307,197408
OK,79,50,970,79,2014-10-02T02:10:00,0,28199749,197408
OK,79,50,970,79,2014-10-02T02:15:00,0,28200191,197408
OK,79,50,970,79,2014-10-02T02:20:00,0,28200634,197408
OK,79,50,970,79,2014-10-02T02:25:00,0,28201083,197408
OK,79,50,970,79,2014-10-02T02:30:00,0,28201514,197408
OK,79,50,970,79,2014-10-02T02:45:00,0,28202412,197408
OK,79,50,970,79,2014-10-02T02:50:00,0,28202854,197408
OK,79,50,970,79,2014-10-02T02:55:00,0,28203302,197408
OK,79,50,970,79,2014-10-02T03:00:00,0,28203737,197408
OK,79,50,970,79,2014-10-02T03:10:00,0,28204186,197408
OK,79,50,970,79,2014-10-02T03:25:00,0,28204635,197408
OK,79,50,970,79,2014-10-02T03:30:00,0,28205084,197408
OK,59,68,970,59,2014-10-02T03:35:00,1,28205512,197408
OK,59,68,970,59,2014-10-02T03:40:00,0,28205959,197408
OK,62,64,970,62,2014-10-02T03:45:00,2,28206342,197408
OK,62,64,970,62,2014-10-02T03:55:00,0,28207240,197408
OK,62,64,970,62,2014-10-02T04:00:00,0,28207660,197408
OK,62,64,970,62,2014-10-02T04:05:00,0,28208108,197408
OK,78,51,970,78,2014-10-02T04:10:00,1,28208535,197408
OK,78,51,970,78,2014-10-02T04:15:00,0,28208984,197408
OK,70,57,970,70,2014-10-02T04:20:00,5,28209422,197408
OK,71,56,970,71,2014-10-02T04:25:00,1,28209871,197408
OK,80,50,970,80,2014-10-02T04:30:00,13,28210294,197408
OK,82,49,970,82,2014-10-02T04:35:00,7,28210743,197408
OK,80,50,970,80,2014-10-02T04:40:00,3,28211168,197408
OK,78,51,970,78,2014-10-02T04:45:00,0,28211612,197408
OK,78,51,970,78,2014-10-02T04:50:00,0,28211990,197408
OK,82,49,970,82,2014-10-02T04:55:00,7,28212439,197408
OK,88,45,970,88,2014-10-02T05:00:00,0,28212868,197408
OK,85,47,970,85,2014-10-02T05:05:00,13,28213317,197408
OK,86,46,970,86,2014-10-02T05:10:00,3,28213755,197408
OK,77,52,970,77,2014-10-02T05:15:00,11,28214204,197408
OK,70,57,970,70,2014-10-02T05:20:00,1,28214617,197408
OK,123,32,970,123,2014-10-02T05:25:00,13,28215066,197408
OK,125,32,970,125,2014-10-02T05:30:00,7,28215482,197408
OK,146,27,970,146,2014-10-02T05:35:00,0,28215931,197408
OK,167,24,970,167,2014-10-02T05:40:00,15,28216271,197408
OK,158,25,970,158,2014-10-02T05:45:00,6,28216710,197408
OK,178,22,970,178,2014-10-02T05:50:00,0,28217157,197408
OK,211,19,970,211,2014-10-02T05:55:00,22,28217606,197408
OK,201,20,970,201,2014-10-02T06:00:00,17,28218045,197408
OK,196,20,970,196,2014-10-02T06:05:00,17,28218494,197408
OK,160,25,970,160,2014-10-02T06:10:00,2,28218914,197408
OK,76,52,970,76,2014-10-02T06:15:00,23,28219363,197408
OK,74,54,970,74,2014-10-02T06:20:00,15,28219736,197408
OK,88,45,970,88,2014-10-02T06:25:00,16,28220185,197408
OK,85,47,970,85,2014-10-02T06:30:00,20,28220619,197408
OK,78,51,970,78,2014-10-02T06:35:00,14,28221068,197408
OK,83,48,970,83,2014-10-02T06:40:00,13,28221449,197408
OK,81,49,970,81,2014-10-02T06:45:00,12,28221735,197408
OK,72,55,970,72,2014-10-02T07:00:00,13,28222329,197408
OK,73,55,970,73,2014-10-02T07:05:00,8,28222778,197408
OK,74,54,970,74,2014-10-02T07:10:00,11,28223209,197408
OK,74,54,970,74,2014-10-02T07:15:00,5,28223644,197408
OK,75,53,970,75,2014-10-02T07:20:00,0,28224092,197408
OK,79,50,970,79,2014-10-02T07:25:00,7,28224447,197408
OK,76,52,970,76,2014-10-02T07:30:00,0,28224896,197408
OK,78,51,970,78,2014-10-02T07:35:00,9,28225345,197408
OK,68,59,970,68,2014-10-02T07:40:00,1,28225667,197408
OK,69,58,970,69,2014-10-02T07:50:00,4,28226557,197408
OK,69,58,970,69,2014-10-02T07:55:00,9,28227006,197408
OK,67,60,970,67,2014-10-02T08:00:00,4,28227421,197408
OK,84,47,970,84,2014-10-02T08:05:00,8,28227870,197408
OK,89,45,970,89,2014-10-02T08:10:00,5,28228229,197408
OK,74,54,970,74,2014-10-02T08:20:00,1,28229088,197408
OK,73,55,970,73,2014-10-02T08:25:00,3,28229537,197408
OK,73,55,970,73,2014-10-02T08:30:00,2,28229887,197408
OK,81,49,970,81,2014-10-02T08:35:00,6,28230336,197408
OK,74,54,970,74,2014-10-02T08:40:00,3,28230702,197408
OK,74,54,970,74,2014-10-02T08:45:00,0,28231151,197408
OK,75,53,970,75,2014-10-02T08:50:00,5,28231574,197408
OK,74,54,970,74,2014-10-02T08:55:00,2,28232023,197408
OK,81,49,970,81,2014-10-02T09:00:00,5,28232365,197408
OK,78,51,970,78,2014-10-02T09:10:00,0,28232814,197408
OK,72,55,970,72,2014-10-02T09:15:00,7,28233263,197408
OK,69,58,970,69,2014-10-02T09:20:00,0,28233687,197408
OK,71,56,970,71,2014-10-02T09:25:00,3,28234136,197408
OK,76,52,970,76,2014-10-02T09:30:00,0,28234469,197408
OK,59,68,970,59,2014-10-02T09:40:00,0,28235345,197408
OK,77,52,970,77,2014-10-02T09:45:00,6,28235794,197408
OK,70,57,970,70,2014-10-02T09:50:00,1,28236237,197408
OK,75,53,970,75,2014-10-02T09:55:00,5,28236684,197408
OK,64,62,970,64,2014-10-02T10:00:00,0,28237087,197408
OK,64,62,970,64,2014-10-02T10:05:00,0,28237535,197408
OK,79,50,970,79,2014-10-02T10:10:00,5,28237983,197408
OK,70,57,970,70,2014-10-02T10:15:00,1,28238430,197408
OK,76,52,970,76,2014-10-02T10:20:00,5,28238871,197408
OK,85,47,970,85,2014-10-02T10:25:00,4,28239320,197408
OK,74,54,970,74,2014-10-02T10:30:00,0,28239750,197408
OK,76,52,970,76,2014-10-02T10:35:00,5,28240199,197408
OK,76,52,970,76,2014-10-02T10:40:00,7,28240643,197408
OK,74,54,970,74,2014-10-02T10:45:00,6,28241092,197408
OK,72,55,970,72,2014-10-02T10:50:00,2,28241524,197408
OK,75,53,970,75,2014-10-02T10:55:00,6,28241972,197408
OK,87,46,970,87,2014-10-02T11:00:00,1,28242368,197408
OK,87,46,970,87,2014-10-02T11:05:00,0,28242817,197408
OK,79,50,970,79,2014-10-02T11:10:00,6,28243266,197408
OK,80,50,970,80,2014-10-02T11:15:00,3,28243594,197408
OK,78,51,970,78,2014-10-02T11:20:00,5,28244029,197408
OK,95,42,970,95,2014-10-02T11:25:00,0,28244458,197408
OK,95,42,970,95,2014-10-02T11:30:00,0,28244907,197408
OK,73,55,970,73,2014-10-02T11:35:00,4,28245356,197408
OK,79,50,970,79,2014-10-02T11:40:00,2,28245762,197408
OK,79,50,970,79,2014-10-02T11:45:00,0,28246211,197408
OK,71,56,970,71,2014-10-02T11:50:00,8,28246648,197408
OK,85,47,970,85,2014-10-02T11:55:00,7,28247097,197408
OK,78,51,970,78,2014-10-02T12:00:00,5,28247543,197408
OK,76,52,970,76,2014-10-02T12:05:00,0,28247973,197408
OK,76,52,970,76,2014-10-02T12:10:00,0,28248422,197408
OK,71,56,970,71,2014-10-02T12:15:00,10,28248869,197408
OK,90,44,970,90,2014-10-02T12:20:00,4,28249297,197408
OK,74,54,970,74,2014-10-02T12:25:00,4,28249741,197408
OK,68,59,970,68,2014-10-02T12:30:00,2,28250160,197408
OK,74,54,970,74,2014-10-02T12:35:00,7,28250558,197408
OK,84,47,970,84,2014-10-02T13:20:00,8,28251883,197408
OK,78,51,970,78,2014-10-02T13:30:00,3,28252467,197408
OK,75,53,970,75,2014-10-02T13:35:00,2,28252909,197408
OK,78,51,970,78,2014-10-02T13:40:00,0,28253326,197408
OK,74,54,970,74,2014-10-02T13:50:00,4,28254180,197408
OK,79,50,970,79,2014-10-02T13:55:00,7,28254501,197408
OK,74,54,970,74,2014-10-02T14:10:00,12,28255078,197408
OK,76,52,970,76,2014-10-02T14:15:00,8,28255527,197408
OK,163,24,970,163,2014-10-02T14:20:00,4,28255955,197408
OK,139,28,970,139,2014-10-02T14:25:00,2,28256404,197408
OK,78,51,970,78,2014-10-02T14:30:00,15,28256832,197408
OK,82,49,970,82,2014-10-02T14:35:00,14,28257281,197408
OK,82,49,970,82,2014-10-02T14:40:00,6,28257722,197408
OK,82,49,970,82,2014-10-02T14:45:00,8,28258170,197408
OK,84,47,970,84,2014-10-02T14:50:00,6,28258603,197408
OK,92,43,970,92,2014-10-02T14:55:00,7,28259049,197408
OK,74,54,970,74,2014-10-02T15:00:00,7,28259498,197408
OK,79,50,970,79,2014-10-02T15:05:00,5,28259945,197408
OK,82,49,970,82,2014-10-02T15:10:00,11,28260378,197408
OK,90,44,970,90,2014-10-02T15:15:00,9,28260827,197408
OK,79,50,970,79,2014-10-02T15:20:00,6,28261267,197408
OK,73,55,970,73,2014-10-02T15:25:00,6,28261649,197408
OK,75,53,970,75,2014-10-02T15:30:00,5,28262079,197408
OK,66,60,970,66,2014-10-02T15:40:00,5,28262972,197408
OK,75,53,970,75,2014-10-02T15:45:00,10,28263410,197408
OK,74,54,970,74,2014-10-02T15:50:00,4,28263851,197408
OK,78,51,970,78,2014-10-02T15:55:00,0,28264253,197408
OK,73,55,970,73,2014-10-02T16:00:00,14,28264702,197408
OK,71,56,970,71,2014-10-02T16:05:00,12,28265140,197408
OK,70,57,970,70,2014-10-02T16:10:00,9,28265580,197408
OK,69,58,970,69,2014-10-02T16:15:00,4,28265976,197408
OK,68,59,970,68,2014-10-02T16:20:00,8,28266425,197408
OK,75,53,970,75,2014-10-02T16:25:00,8,28266874,197408
OK,74,54,970,74,2014-10-02T16:30:00,5,28267197,197408
OK,81,49,970,81,2014-10-02T16:40:00,0,28268095,197408